User: anonymous   Login
Location: Unspecified
(0.0000°N, 0.0000°E)
Time: 20:48:59
(UTC+00:00)
Language:

HAI YANG 1B - Orbit

View from above orbital plane
View from above orbital plane
View from above satellite
View from above satellite

Ground track
Ground track

The orbit is defined by the following mean orbital elements,

1 31113U          26150.45497404 +.00000000 +00000-0 +58323-4 0 00008
2 31113  98.3487 132.9887 0012249 252.7542 107.2301 14.31022107    08
Epoch (UTC): 30 May 2026 10:55:09
Eccentricity: 0.0012249
inclination: 98.3487°
perigee height: 780 km
apogee height: 797 km
right ascension of ascending node: 132.9887°
argument of perigee: 252.7542°
revolutions per day: 14.31022107
mean anomaly at epoch: 107.2301°

The dashed part of the orbit path shows where the satellite is in the earth's shadow,  

DLR